Location: Altleiningen
(49.5078°N, 8.0741°E)
Time: 23:35:04
(UTC+00:00)

USA 234 - Pass Details

Date: 03 March 2021
Orbit: 1102 x 1105 km, 123.0° (Epoch: 13 April)

Event Time Altitude Azimuth Distance (km) Brightness Sun altitude
Exits shadow 17:52:36 - 66° (ENE) 3,350 5.2 -7.1°
Reaches altitude 10° 17:53:51 10° 73° (ENE) 2,965 4.9 -7.3°
Maximum altitude 17:59:06 25° 127° (SE) 2,052 4.3 -8.1°
Drops below altitude 10° 18:04:18 10° 180° (S) 2,954 5.5 -9.0°
Sets 18:07:17 0° 193° (SSW) 3,908 6.3 -9.5°
